UAL2856 KEGE-KSLC

Flight info

Callsign UAL2856
Flight time 0h 50m
Altitude 34000
Route BEVVR1 SPRKT EKR RACER JAZZZ1
Aircraft B738/M-SDE2E3FGHIRWXY/LB1

Departure

Time 2026-05-07 00:54
Airport Eagle County Regional Airport (KEGE)

Arrival

Time 2026-05-07 01:45
Airport Salt Lake City International Airport (KSLC)
Time Latitude Longitude Altitude Speed Heading
2026-05-07 00:28 39.64066 -106.91487 6572 ft 0 kts 171°
2026-05-07 00:44 39.64068 -106.91487 6572 ft 1 kts 171°
2026-05-07 00:44 39.64082 -106.91490 6572 ft 2 kts 171°
2026-05-07 00:45 39.64092 -106.91492 6572 ft 2 kts 172°
2026-05-07 00:45 39.64106 -106.91499 6572 ft 2 kts 137°
2026-05-07 00:45 39.64115 -106.91515 6572 ft 2 kts 111°
2026-05-07 00:45 39.64117 -106.91533 6572 ft 0 kts 85°
2026-05-07 00:46 39.64116 -106.91541 6572 ft 1 kts 79°
2026-05-07 00:46 39.64116 -106.91544 6572 ft 0 kts 81°
2026-05-07 00:47 39.64116 -106.91542 6572 ft 1 kts 81°
2026-05-07 00:48 39.64118 -106.91511 6572 ft 3 kts 87°
2026-05-07 00:48 39.64119 -106.91496 6572 ft 0 kts 81°
2026-05-07 00:49 39.64124 -106.91456 6572 ft 12 kts 82°
2026-05-07 00:49 39.64142 -106.91296 6572 ft 18 kts 80°
2026-05-07 00:49 39.64212 -106.91177 6572 ft 16 kts 76°
2026-05-07 00:49 39.64228 -106.91033 6572 ft 17 kts 82°
2026-05-07 00:50 39.64250 -106.90830 6572 ft 27 kts 82°
2026-05-07 00:50 39.64276 -106.90597 6572 ft 25 kts 81°
2026-05-07 00:50 39.64300 -106.90374 6572 ft 23 kts 82°
2026-05-07 00:50 39.64320 -106.90182 6572 ft 13 kts 84°
2026-05-07 00:51 39.64323 -106.90161 6572 ft 0 kts 79°
2026-05-07 00:52 39.64327 -106.90137 6572 ft 5 kts 79°
2026-05-07 00:52 39.64339 -106.90060 6572 ft 10 kts 71°
2026-05-07 00:52 39.64393 -106.90019 6572 ft 9 kts 353°
2026-05-07 00:52 39.64442 -106.90064 6572 ft 11 kts 283°
2026-05-07 00:53 39.64439 -106.90118 6572 ft 0 kts 262°
2026-05-07 00:53 39.64439 -106.90121 6572 ft 1 kts 262°
2026-05-07 00:54 39.64409 -106.90390 6572 ft 67 kts 262°
2026-05-07 00:54 39.64308 -106.91293 6572 ft 135 kts 262°
2026-05-07 00:54 39.64153 -106.92738 6726 ft 177 kts 262°
2026-05-07 00:54 39.63924 -106.94269 7509 ft 177 kts 253°
2026-05-07 00:55 39.63226 -106.95596 8123 ft 192 kts 217°
2026-05-07 00:55 39.61817 -106.96192 8095 ft 239 kts 180°
2026-05-07 00:55 39.60110 -106.96188 8709 ft 253 kts 192°
2026-05-07 00:55 39.58551 -106.97235 9398 ft 262 kts 227°
2026-05-07 00:56 39.57735 -106.99291 10232 ft 263 kts 264°
2026-05-07 00:56 39.57825 -107.01605 11221 ft 259 kts 282°
2026-05-07 00:56 39.58179 -107.03865 12156 ft 260 kts 287°
2026-05-07 00:56 39.58767 -107.06044 13071 ft 259 kts 297°
2026-05-07 00:57 39.59690 -107.08024 13922 ft 261 kts 310°
2026-05-07 00:57 39.60936 -107.09693 14867 ft 257 kts 325°
2026-05-07 00:57 39.62499 -107.10671 15808 ft 251 kts 347°
2026-05-07 00:57 39.64215 -107.10870 16588 ft 254 kts
2026-05-07 00:58 39.65943 -107.10589 17490 ft 252 kts
2026-05-07 00:58 39.67641 -107.10120 18311 ft 252 kts 11°
2026-05-07 00:58 39.69359 -107.09624 19039 ft 255 kts 10°
2026-05-07 00:58 39.71108 -107.09341 19772 ft 256 kts 360°
2026-05-07 00:59 39.74589 -107.10612 20954 ft 276 kts 333°
2026-05-07 00:59 39.76141 -107.12207 21338 ft 297 kts 320°
2026-05-07 00:59 39.77433 -107.14398 21726 ft 318 kts 307°
2026-05-07 01:00 39.78471 -107.17018 22075 ft 336 kts 302°
2026-05-07 01:00 39.79523 -107.19810 22365 ft 350 kts 304°
2026-05-07 01:00 39.80699 -107.22615 22650 ft 364 kts 306°
2026-05-07 01:00 39.82033 -107.25480 23209 ft 369 kts 308°
2026-05-07 01:01 39.83411 -107.28266 23915 ft 370 kts 309°
2026-05-07 01:01 39.84825 -107.31039 24589 ft 372 kts 310°
2026-05-07 01:01 39.86261 -107.33820 25204 ft 375 kts 310°
2026-05-07 01:01 39.87731 -107.36658 25811 ft 378 kts 310°
2026-05-07 01:02 39.89203 -107.39497 26455 ft 380 kts 310°
2026-05-07 01:02 39.90687 -107.42356 26989 ft 384 kts 310°
2026-05-07 01:02 39.92164 -107.45209 27598 ft 386 kts 310°
2026-05-07 01:02 39.93658 -107.48097 28164 ft 388 kts 310°
2026-05-07 01:03 39.95127 -107.51108 28632 ft 395 kts 307°
2026-05-07 01:03 39.96406 -107.54253 29101 ft 403 kts 302°
2026-05-07 01:03 39.97516 -107.57650 29717 ft 407 kts 298°
2026-05-07 01:03 39.98480 -107.61056 30517 ft 403 kts 297°
2026-05-07 01:04 39.99388 -107.64477 31194 ft 400 kts 297°
2026-05-07 01:04 40.00290 -107.67931 31739 ft 400 kts 296°
2026-05-07 01:04 40.01187 -107.71378 32370 ft 397 kts 296°
2026-05-07 01:04 40.02073 -107.74771 32912 ft 396 kts 296°
2026-05-07 01:05 40.02951 -107.78113 33426 ft 394 kts 297°
2026-05-07 01:05 40.03838 -107.81485 33952 ft 392 kts 297°
2026-05-07 01:05 40.04731 -107.84867 34222 ft 394 kts 297°
2026-05-07 01:06 40.06353 -107.91718 34234 ft 397 kts 291°
2026-05-07 01:06 40.07140 -107.99028 34216 ft 406 kts 283°
2026-05-07 01:07 40.07478 -108.06459 34204 ft 408 kts 281°
2026-05-07 01:07 40.07761 -108.13895 34188 ft 408 kts 281°
2026-05-07 01:08 40.08062 -108.21316 34198 ft 407 kts 281°
2026-05-07 01:08 40.08370 -108.28636 34197 ft 407 kts 281°
2026-05-07 01:09 40.08681 -108.35993 34200 ft 405 kts 282°
2026-05-07 01:09 40.08993 -108.43340 34187 ft 406 kts 281°
2026-05-07 01:10 40.09301 -108.50680 34186 ft 405 kts 282°
2026-05-07 01:10 40.09603 -108.58005 34188 ft 405 kts 281°
2026-05-07 01:11 40.09902 -108.65345 34190 ft 405 kts 281°
2026-05-07 01:11 40.10198 -108.72714 34190 ft 406 kts 281°
2026-05-07 01:12 40.10486 -108.80061 34185 ft 404 kts 281°
2026-05-07 01:12 40.10770 -108.87393 34189 ft 406 kts 281°
2026-05-07 01:13 40.11047 -108.94706 34192 ft 404 kts 281°
2026-05-07 01:13 40.11324 -109.02087 34183 ft 405 kts 281°
2026-05-07 01:14 40.11594 -109.09420 34189 ft 406 kts 281°
2026-05-07 01:14 40.11859 -109.16770 34191 ft 406 kts 281°
2026-05-07 01:15 40.12119 -109.24101 34190 ft 406 kts 281°
2026-05-07 01:15 40.12376 -109.31486 34195 ft 405 kts 281°
2026-05-07 01:16 40.12626 -109.38785 34201 ft 405 kts 281°
2026-05-07 01:16 40.12876 -109.46170 34203 ft 406 kts 281°
2026-05-07 01:17 40.13120 -109.53533 34201 ft 405 kts 280°
2026-05-07 01:17 40.13355 -109.60834 34198 ft 405 kts 281°
2026-05-07 01:18 40.13588 -109.68190 34204 ft 404 kts 280°
2026-05-07 01:18 40.13823 -109.75616 34199 ft 407 kts 280°
2026-05-07 01:19 40.14045 -109.82967 34202 ft 406 kts 280°
2026-05-07 01:19 40.14260 -109.90291 34200 ft 405 kts 280°
2026-05-07 01:20 40.14475 -109.97628 34205 ft 406 kts 280°
2026-05-07 01:20 40.14686 -110.04991 34203 ft 405 kts 280°
2026-05-07 01:21 40.14891 -110.12291 34202 ft 406 kts 279°
2026-05-07 01:21 40.14934 -110.19591 33804 ft 397 kts 277°
2026-05-07 01:21 40.14885 -110.23144 33344 ft 396 kts 277°
2026-05-07 01:22 40.14835 -110.26771 32926 ft 402 kts 277°
2026-05-07 01:22 40.14791 -110.30439 32449 ft 402 kts 277°
2026-05-07 01:22 40.14745 -110.34034 31958 ft 394 kts 277°
2026-05-07 01:22 40.14700 -110.37580 31474 ft 385 kts 277°
2026-05-07 01:23 40.14659 -110.41054 31011 ft 383 kts 277°
2026-05-07 01:23 40.14628 -110.44556 30541 ft 390 kts 277°
2026-05-07 01:23 40.14599 -110.48047 30077 ft 388 kts 277°
2026-05-07 01:23 40.14560 -110.51546 29603 ft 379 kts 277°
2026-05-07 01:24 40.14518 -110.54916 29142 ft 371 kts 277°
2026-05-07 01:24 40.14478 -110.58281 28683 ft 372 kts 277°
2026-05-07 01:24 40.14447 -110.61675 28215 ft 378 kts 277°
2026-05-07 01:24 40.14413 -110.65104 27745 ft 374 kts 276°
2026-05-07 01:25 40.14372 -110.68469 27282 ft 365 kts 276°
2026-05-07 01:25 40.14328 -110.71732 26830 ft 357 kts 276°
2026-05-07 01:25 40.14287 -110.74939 26396 ft 358 kts 276°
2026-05-07 01:25 40.14254 -110.78226 25955 ft 365 kts 276°
2026-05-07 01:26 40.14216 -110.81537 25495 ft 360 kts 276°
2026-05-07 01:26 40.14172 -110.84755 25104 ft 354 kts 276°
2026-05-07 01:26 40.14129 -110.88009 24830 ft 360 kts 276°
2026-05-07 01:26 40.14086 -110.91221 24545 ft 353 kts 276°
2026-05-07 01:27 40.14039 -110.94396 23856 ft 353 kts 276°
2026-05-07 01:27 40.13994 -110.97623 23185 ft 351 kts 276°
2026-05-07 01:27 40.13946 -111.00751 22807 ft 341 kts 275°
2026-05-07 01:27 40.13898 -111.03792 22403 ft 338 kts 275°
2026-05-07 01:28 40.13855 -111.06898 21972 ft 343 kts 276°
2026-05-07 01:28 40.13812 -111.09978 21541 ft 338 kts 275°
2026-05-07 01:28 40.13763 -111.12993 21114 ft 330 kts 275°
2026-05-07 01:28 40.13714 -111.15958 20697 ft 328 kts 275°
2026-05-07 01:29 40.13670 -111.18955 20278 ft 336 kts 275°
2026-05-07 01:29 40.13623 -111.22002 19845 ft 332 kts 275°
2026-05-07 01:29 40.13571 -111.24973 19427 ft 324 kts 275°
2026-05-07 01:29 40.13519 -111.27870 19014 ft 320 kts 275°
2026-05-07 01:30 40.13473 -111.30809 18606 ft 327 kts 275°
2026-05-07 01:30 40.13427 -111.33760 18178 ft 323 kts 275°
2026-05-07 01:30 40.13373 -111.36655 17680 ft 318 kts 275°
2026-05-07 01:30 40.13319 -111.39539 17190 ft 313 kts 275°
2026-05-07 01:31 40.13267 -111.42335 16797 ft 308 kts 275°
2026-05-07 01:31 40.13220 -111.45126 16413 ft 314 kts 275°
2026-05-07 01:31 40.13173 -111.48003 16005 ft 317 kts 275°
2026-05-07 01:31 40.13120 -111.50883 15601 ft 315 kts 275°
2026-05-07 01:32 40.13177 -111.53716 15197 ft 309 kts 282°
2026-05-07 01:32 40.13591 -111.56361 15067 ft 295 kts 293°
2026-05-07 01:32 40.14321 -111.58868 15060 ft 296 kts 298°
2026-05-07 01:32 40.15161 -111.61321 15058 ft 296 kts 300°
2026-05-07 01:33 40.16015 -111.63751 15056 ft 295 kts 300°
2026-05-07 01:33 40.16930 -111.66167 15049 ft 294 kts 304°
2026-05-07 01:33 40.18094 -111.68330 15049 ft 290 kts 314°
2026-05-07 01:33 40.19510 -111.70207 15047 ft 289 kts 320°
2026-05-07 01:34 40.21006 -111.71954 15041 ft 287 kts 321°
2026-05-07 01:34 40.22508 -111.73676 15039 ft 288 kts 321°
2026-05-07 01:34 40.23999 -111.75413 14935 ft 284 kts 321°
2026-05-07 01:34 40.25446 -111.77130 14630 ft 279 kts 320°
2026-05-07 01:35 40.26870 -111.78832 14256 ft 278 kts 320°
2026-05-07 01:35 40.28307 -111.80553 13882 ft 282 kts 320°
2026-05-07 01:35 40.29753 -111.82283 13500 ft 283 kts 320°
2026-05-07 01:35 40.31191 -111.84007 13119 ft 281 kts 320°
2026-05-07 01:36 40.32616 -111.85717 12853 ft 275 kts 320°
2026-05-07 01:36 40.34004 -111.87385 12729 ft 264 kts 320°
2026-05-07 01:36 40.35367 -111.88944 12480 ft 258 kts 327°
2026-05-07 01:36 40.36979 -111.89899 12142 ft 253 kts 344°
2026-05-07 01:37 40.38626 -111.90564 11805 ft 243 kts 341°
2026-05-07 01:37 40.40163 -111.91346 11499 ft 230 kts 338°
2026-05-07 01:37 40.41595 -111.92169 11231 ft 222 kts 336°
2026-05-07 01:37 40.43028 -111.93019 11057 ft 230 kts 337°
2026-05-07 01:38 40.44584 -111.93646 10979 ft 239 kts 349°
2026-05-07 01:38 40.46243 -111.93868 10527 ft 241 kts 355°
2026-05-07 01:38 40.47897 -111.93973 10091 ft 234 kts 356°
2026-05-07 01:38 40.49456 -111.94090 9719 ft 219 kts 354°
2026-05-07 01:39 40.50935 -111.94251 9322 ft 209 kts 353°
2026-05-07 01:39 40.52359 -111.94435 9081 ft 200 kts 353°
2026-05-07 01:39 40.53722 -111.94589 8855 ft 195 kts 354°
2026-05-07 01:39 40.55125 -111.94745 8580 ft 208 kts 354°
2026-05-07 01:40 40.56589 -111.94913 8286 ft 211 kts 354°
2026-05-07 01:40 40.58052 -111.95081 7996 ft 212 kts 354°
2026-05-07 01:40 40.59516 -111.95248 7728 ft 211 kts 354°
2026-05-07 01:40 40.60988 -111.95418 7423 ft 213 kts 354°
2026-05-07 01:41 40.62470 -111.95589 7130 ft 213 kts 354°
2026-05-07 01:41 40.63929 -111.95757 6845 ft 210 kts 355°
2026-05-07 01:41 40.65337 -111.95918 6574 ft 193 kts 355°
2026-05-07 01:41 40.66619 -111.96066 6337 ft 177 kts 355°
2026-05-07 01:42 40.67799 -111.96202 6085 ft 163 kts 355°
2026-05-07 01:42 40.68909 -111.96329 5888 ft 157 kts 355°
2026-05-07 01:42 40.69992 -111.96454 5682 ft 158 kts 354°
2026-05-07 01:42 40.71091 -111.96581 5472 ft 158 kts 354°
2026-05-07 01:43 40.72190 -111.96707 5266 ft 157 kts 354°
2026-05-07 01:43 40.73283 -111.96833 5058 ft 157 kts 354°
2026-05-07 01:43 40.74365 -111.96958 4855 ft 157 kts 354°
2026-05-07 01:43 40.75456 -111.97083 4653 ft 156 kts 354°
2026-05-07 01:44 40.76541 -111.97208 4449 ft 156 kts 354°
2026-05-07 01:44 40.77611 -111.97332 4259 ft 155 kts 353°
2026-05-07 01:44 40.78577 -111.97450 4232 ft 112 kts 355°
2026-05-07 01:44 40.79148 -111.97514 4230 ft 54 kts 355°
2026-05-07 01:45 40.79464 -111.97563 4230 ft 37 kts 12°
2026-05-07 01:45 40.79653 -111.97577 4231 ft 21 kts 336°
2026-05-07 01:45 40.79665 -111.97746 4230 ft 20 kts 228°
2026-05-07 01:45 40.79528 -111.97773 4229 ft 20 kts 174°
2026-05-07 01:46 40.79384 -111.97754 4229 ft 21 kts 175°
2026-05-07 01:46 40.79237 -111.97740 4229 ft 21 kts 174°
2026-05-07 01:46 40.79091 -111.97720 4229 ft 20 kts 174°
2026-05-07 01:46 40.78949 -111.97704 4230 ft 20 kts 174°
2026-05-07 01:47 40.78836 -111.97748 4230 ft 18 kts 254°
2026-05-07 01:47 40.78807 -111.97897 4230 ft 15 kts 250°
2026-05-07 01:47 40.78802 -111.98032 4230 ft 14 kts 266°
2026-05-07 01:47 40.78793 -111.98162 4229 ft 14 kts 265°
2026-05-07 01:48 40.78773 -111.98288 4229 ft 13 kts 238°
2026-05-07 01:48 40.78689 -111.98316 4230 ft 12 kts 182°
2026-05-07 01:48 40.78638 -111.98319 4230 ft 2 kts 181°
2026-05-07 01:48 40.78630 -111.98319 4230 ft 0 kts 181°